ARIANE 42P DEB *, 47108

Orbit data source: Space-Track

ARIANE 42P DEB *, 47108 is space debris in LEO originally from a launch on Mon, 10 Aug 1992 UTC launched from the French Guiana (FRGUI). Debris objects in space refer to the collection of defunct objects orbiting the Earth. Examples of debris include non-operational satellites, rocket bodies, and fragments generated from explosions, collisions, or faulty payload assembly.

Loading next visibility...
ARIANE 42P DEB * details
Identifier
47108, 1992-052P
Orbit
LEO
Last TLE update6 days ago
Origin
Flag of FRArianespace (FR)
ManufacturerArianeGroup
MissionSpacecraft
Bus & MotorUnknown
MassUnknown
Launch date (UTC)
1992-08-10 (32 years ago)
Launch vehicleUnknown
Launch site
French Guiana (FRGUI)
Object type
Payload
Rocket body
Debris
Shape & HBRUnknown
Radar Cross SectionSmall (<0.1 m²)

Expand to show TLE details & history

TLE from 6 days ago
0 ARIANE 42P DEB *
1 47108U 92052P   24355.81390404  .00001280  00000-0  71432-3 0  9997
2 47108  65.8188  27.9309 1174784 145.4289 222.9136 12.42343277 31647
Epoch: 2024-12-20T19:32Z
Definitive object data (Epoch: 2024-12-20T19:32:01.309Z)
Latitude-0.00006°
Longitude5.0514°
Altitude2,220.642 km
Speed6.49 km/s
True Right ascension01h 51m 43s
True Declination0° 00' 00"
Sunlit
Object was in daylight at TLE epoch
Visualization TLE readout
Latitude-36.6339°
Longitude-25.64345°
Altitude2,432.143 km
Speed6.32 km/s
Apparent Right ascension23h 01m 08s
Apparent Declination-38° 44' 54"
Sunlit
Object is in daylight
Visualization observer readout
Local Sidereal Time09:51:30
Azimuth269.377° W
Elevation-76.507°
Doppler factor1
Orbital elements
Apogee altitude2,420.228 km
Perigee altitude570.317 km
Semi-major axis7,873.409 km
Eccentricity0.1174784
Inclination65.8188°
RAAN27.9309°
Arg. of periapsis145.4289°
True anomaly214.66849°
Mean anomaly222.9136°
Eccentric anomaly218.70465°
Mean motion3.1067 °/min
BSTAR0.00071432
Orbital period115.88 mins
Loading maneuver chart data...
Loading historical data...
Loading historical data...
Loading historical data...
Loading historical data...
Loading historical data...
Loading historical data...
Loading historical data...

ARIANE 42P DEB * Visibility forecast

Observer location: undefined°, undefined

Span
Click to sort rows by Start time (UTC) header in descending order
Start Az.
Max El. time (UTC)
Max El. Az.
Max El.
End time (UTC)
End Az.
6 mins2024-12-26 11:23:18.610Z353.727° N2024-12-26 11:26:18.610Z47.737° ENE25.982°2024-12-26 11:29:18.610Z107.02° ESE
16 mins2024-12-27 02:19:18.610Z189.551° SSW2024-12-27 02:28:18.610Z125.294° SE41.04°2024-12-27 02:35:18.610Z40.714° NE
14 mins2024-12-27 04:20:18.610Z248.102° W2024-12-27 04:28:18.610Z307.156° NW30.11°2024-12-27 04:34:18.610Z11.007° NNE
|